Location: Sabalos
(43.2860°N, 0.1414°E)
Time: 03:45:31
(UTC+00:00)

SL-16 R/B - Visible Passes

Search period start: 23 October 2020 00:00
Search period end: 02 November 2020 00:00
Orbit: 842 x 846 km, 71.0° (Epoch: 22 October)

Date Brightness Start Highest point End Pass type
(mag) Time Alt. Az. Time Alt. Az. Time Alt. Az.
23 Oct 4.7 05:14:41 10° N 05:18:09 16° NE 05:21:36 10° E visible
24 Oct 4.7 05:00:26 10° N 05:03:47 16° NE 05:07:08 10° E visible
25 Oct 4.7 04:46:12 10° N 04:49:26 15° NE 04:52:40 10° E visible
26 Oct 4.8 04:31:57 10° N 04:35:05 15° NE 04:38:11 10° ENE visible
27 Oct 4.8 04:17:43 10° N 04:20:43 14° NE 04:23:42 10° ENE visible
28 Oct 4.8 04:03:29 10° NNE 04:06:21 14° NE 04:09:13 10° ENE visible
28 Oct 2.5 05:45:51 10° NNW 05:51:32 71° ENE 05:57:11 10° SSE visible
29 Oct 4.9 03:49:17 10° NNE 03:51:59 13° NE 03:54:43 10° ENE visible
29 Oct 2.6 05:31:32 10° NNW 05:37:13 69° ENE 05:42:52 10° SSE visible
30 Oct 4.9 03:35:03 10° NNE 03:37:38 13° NE 03:40:12 10° ENE visible
30 Oct 2.6 05:17:13 10° NNW 05:22:54 66° ENE 05:28:32 10° SE visible
31 Oct 4.9 03:20:51 10° NNE 03:23:16 13° NE 03:25:41 10° ENE visible
31 Oct 2.6 05:02:55 10° NNW 05:08:34 64° ENE 05:14:11 10° SE visible
31 Oct 4.4 19:55:24 10° SSW 19:56:24 16° SSW 19:56:24 16° SSW visible
01 Nov 4.9 03:06:40 10° NNE 03:08:55 12° NE 03:11:09 10° ENE visible
01 Nov 2.7 04:48:36 10° NNW 04:54:15 62° ENE 04:59:51 10° SE visible
01 Nov 3.9 18:00:28 10° SE 18:01:56 13° ESE 18:01:56 13° ESE visible
01 Nov 3.5 19:41:05 10° SSW 19:43:53 31° SSW 19:43:53 31° SSW visible
